Regional Weather Roundup
Issued by NWS

Home | Current Version | Previous Version | Graphics & Text | Print | Product List | Glossary Off
Versions: 1 2 3 4 5 6 7 8 9 10 11 12 13 14 15 16 17 18 19 20 21 22 23 24 25 26 27 28 29 30 31 32 33 34 35 36 37 38 39 40 41 42 43 44 45 46 47 48 49 50

000
ASUS43 KTOP 170159
RWRKS

WEATHER ROUNDUP FOR KANSAS
NATIONAL WEATHER SERVICE GOODLAND KS
900 PM CDT WED AUG 16 2017

NOTE:  "FAIR" INDICATES FEW OR NO CLOUDS BELOW 12,000 FEET WITH NO
SIGNIFICANT WEATHER AND/OR OBSTRUCTIONS TO VISIBILITY.

KSZ001>006-013>018-027>032-041>047-170300-
NORTHWEST KANSAS

CITY           SKY/WX    TMP DP  RH WIND       PRES   REMARKS
GOODLAND       CLEAR     65  58  78 N7        30.04R
HAYS           CLEAR     73  61  65 N10       29.92R
HILL CITY      CLEAR     69  63  81 N8        29.95R
RUSSELL        CLEAR     75  60  59 N14       29.89R
$$

KSZ061>065-074>080-084>089-170300-
SOUTHWEST KANSAS

CITY           SKY/WX    TMP DP  RH WIND       PRES   REMARKS
DODGE CITY     CLEAR     74  58  57 NW5       29.94R
ELKHART          N/A     76  56  50 N2          N/A
GARDEN CITY    CLEAR     70  53  54 N10       29.97R
GREAT BEND     CLEAR     75  64  68 N5        29.90R
LIBERAL        CLEAR     75  63  66 NW5       29.98R
$$

KSZ066>073-081>083-090>101-170300-
SOUTHEAST KANSAS

CITY           SKY/WX    TMP DP  RH WIND       PRES   REMARKS
CHANUTE        LGT RAIN  71  69  93 S8        29.88R
COFFEYVILLE    TSTM      69  68  96 S5        29.90R FOG
HUTCHINSON     CLOUDY    74  66  76 CALM      29.88R
MEDICINE LODGE   N/A     75  64  68 NE6       29.89R
NEWTON         CLOUDY    74  67  78 N6        29.89R
PARSONS        TSTM      70  68  93 SW8       29.91R
WICHITA INTL   CLOUDY    79  68  69 NE3       29.88R
WICHITA JABRA  CLOUDY    75  71  87 CALM      29.87R
WICHITA MCCONL CLOUDY    77  67  72 N5        29.88R
WINFIELD       CLOUDY    72  72 100 W6        29.88R
$$

KSZ007>012-019>026-033>040-048>060-102>105-170300-
NORTHEAST KANSAS

CITY           SKY/WX    TMP DP  RH WIND       PRES   REMARKS
CONCORDIA      CLEAR     72  62  71 NW8       29.87R
EMPORIA        CLOUDY    76  69  79 CALM      29.86R
LAWRENCE       CLOUDY    75  73  93 E7        29.84R
MANHATTAN      CLOUDY    75  68  78 W3        29.85R
OLATHE IND     CLOUDY    71  69  93 S7        29.86R
OLATHE EXE     CLOUDY    71  71 100 SW5       29.86R
SALINA         CLEAR     80  62  54 NE5       29.88R
TOPEKA BILLARD CLOUDY    77  69  76 CALM      29.84R
TOPEKA FORBES  CLOUDY    75  68  78 W3        29.86R
$$




USA.gov is the U.S. government's official web portal to all federal, state and local government web resources and services.